Tracking 27405 objects as of 2-Jun-2023
HD Live streaming from Space Station
objects crossing your sky now

MOLNIYA 3-8

Track MOLNIYA 3-8 now!
MOLNIYA 3-8 is classified as:


NORAD ID: 10455
Int'l Code: 1977-105A
Perigee: 868.4 km
Apogee: 39,522.8 km
Inclination: 63.5 °
Period: 718.2 minutes
Semi major axis: 26566 km
RCS: 13.5006 m2 (large)
Launch date: October 28, 1977
Source: Commonwealth of Independent States (former USSR) (CIS)
Launch site: PLESETSK MISSILE AND SPACE COMPLEX (PKMTR)
Your satellite tracking list
Your tracking list is empty




NASA's NSSDC Master Catalog

Two Line Element Set (TLE):
1 10455U 77105A   23151.03522757  .00000935  00000-0 -60859-3 0  9997
2 10455  63.5073 306.2467 7274996 282.7573  11.0911  2.00493149334114
Source of the keplerian elements: AFSPC